Regional Weather Roundup
Issued by NWS San Diego, CA

Home | Current Version | Previous Version | Text Only | Print | Product List | Glossary On
Versions: 1 2 3 4 5 6 7 8 9 10 11 12 13 14 15 16 17 18 19 20 21 22 23 24 25 26 27
000
ASUS46 KSGX 220111
RWRSGX

SAN DIEGO HOURLY WEATHER ROUNDUP
NATIONAL WEATHER SERVICE SAN DIEGO CA
600 PM PDT SAT APR 21 2018

NOTE: "FAIR" INDICATES FEW OR NO CLOUDS BELOW 12,000 FEET WITH NO
SIGNIFICANT WEATHER AND/OR OBSTRUCTIONS TO VISIBILITY.

CAZ042-043-060-061-PZZ750-775-220200-

GREATER SAN DIEGO AREA

CITY           SKY/WX    TMP DP  RH WIND       PRES   REMARKS
SAN DIEGO AP   PTSUNNY   66  55  67 W9        29.99S
NATIONAL CITY    N/A     67  56  67 SW6       29.99R
CHULA VISTA      N/A     67  58  72 W5        29.90R
IMPERIAL BEACH PTSUNNY   63  56  78 W9        30.00R
BROWN FIELD    PTSUNNY   67  52  58 W9        29.98R
MIRAMAR MCAS   CLOUDY    69  47  45 NW6       29.97S
MONTGOMERY FLD PTSUNNY   67  46  47 W6        29.98R
GILLESPIE FLD  SUNNY     73  45  35 W10       29.96S

$$

NORTH SAN DIEGO COUNTY

CITY           SKY/WX    TMP DP  RH WIND       PRES   REMARKS
CAMP PENDLETON PTSUNNY   64  53  67 SW8G18    29.95R
OCEANSIDE AP   PTSUNNY   64  55  72 SW8       29.96R
OCEANSIDE HBR    N/A     62  59  89 CALM      29.99R
VISTA            N/A     67  52  59 CALM      29.94S
CARLSBAD       CLOUDY    63  53  70 S5        29.97R
DEL MAR          N/A     63  58  84 CALM      29.99S
LA JOLLA SCRIP   N/A     61  58  89 CALM      29.98R
FALLBROOK        N/A     69  54  60 S1        29.95S
ESCONDIDO        N/A     72  50  45 W6        29.96R
SAN MARCOS       N/A     68  52  56 NW3       30.00S
POWAY            N/A     70  49  46 CALM      29.96R

$$

EAST SAN DIEGO COUNTY

CITY           SKY/WX    TMP DP  RH WIND       PRES   REMARKS
RAMONA         CLOUDY    75  45  34 W7        29.99R
SANTEE LAKES     N/A     71  49  45 SW3       29.95R
LA MESA          N/A     71  47  41 W1        29.91S
JAMUL            N/A     72  54  52 CALM      29.97R
CAMPO            N/A     76  35  22 W12       29.98R

$$

ORANGE COUNTY AND THE LOS ANGELES BASIN

CITY           SKY/WX    TMP DP  RH WIND       PRES   REMARKS
JOHN WAYNE AP  PTSUNNY   74  49  41 SW7       29.95S
LAGUNA BEACH     N/A     69  55  61 CALM      29.92R
LAKE FOREST FR   N/A     81  45  27 W2        29.83S
HUNTINGTON BCH   N/A     68  56  64 W3        29.95S
LOS ALAMITOS   FAIR      76  46  33 W9        29.95R
FULLERTON      PTSUNNY   76  47  35 W9        29.94R
LONG BEACH     PTSUNNY   73  48  41 NW13      29.95S
L.A. AP        PTSUNNY   64  52  64 W13       29.96F

$$

THE INLAND EMPIRE

CITY           SKY/WX    TMP DP  RH WIND       PRES   REMARKS
CORONA         MOSUNNY   82  43  25 W10       29.94S
CHINO          PTSUNNY   85  43  22 SW15      29.95S
ONTARIO        PTSUNNY   84  32  15 W15       29.94F
SAN BERNARDINO PTSUNNY   86  28  12 W14       29.95S
RIVERSIDE AP   PTSUNNY   84  35  17 W16       29.94S
MORENO VALLEY    N/A     83  46  27 W7        28.09R
MARCH ARB      MOSUNNY   82  31  16 W17       29.96S
HORSETHIEF CYN   N/A     84  26  12 NW3       29.94S
PERRIS           N/A     82  35  18 W7        29.89S
HEMET EAST       N/A     83  33  16 SW6       29.88S
FRENCH VALLEY  FAIR      84  32  15 SW10      29.96S
TEMECULA         N/A     85  49  27 S5        29.95F

$$

SAN BERNARDINO AND RIVERSIDE COUNTY MOUNTAINS

CITY           SKY/WX    TMP DP  RH WIND       PRES   REMARKS
BIG BEAR AP    MOSUNNY   61  12  15 NE9       30.21S

$$

SOUTHERN DESERT INCLUDING THE COACHELLA VALLEY

CITY           SKY/WX    TMP DP  RH WIND       PRES   REMARKS
PALM SPRINGS   MOSUNNY   94  23   8 E3        29.88F
THOUSAND PALMS   N/A     92  32  12 SE9       29.84F
PALM DESERT      N/A     90  37  15 SE3       31.57S
THERMAL        PTSUNNY   93  29  10 SE9       29.84F
BLYTHE         CLOUDY    89  28  11 S9        29.88S
IMPERIAL AP    CLOUDY    89  29  11 W6        29.86F
EL CENTRO NAS  CLOUDY    90  20   7 SW5       29.88F
YUMA AZ        PTSUNNY   86  39  19 W8        29.89S
MEXICALI       PTSUNNY   90  27  10 W3        29.89S

$$

UPPER DESERT

CITY           SKY/WX    TMP DP  RH WIND       PRES   REMARKS
VICTORVILLE AP SUNNY     81  12   7 CALM      30.03F
HESPERIA         N/A     78  30  17 SW3       29.98F
APPLE VALLEY     N/A     80  14   8 SE9       29.99F
PALMDALE       PTSUNNY   82  21  10 NW8       30.01F
LANCASTER      MOSUNNY   82  12   7 NE6       30.00F
EDWARDS AFB    PTSUNNY   82   9   6 CALM      29.99S
DAGGETT        PTSUNNY   85  13   7 CALM      29.96F
29 PALMS N     MOSUNNY   85   9   5 W5        30.02F
NEEDLES        MOSUNNY   91  19   7 SE5       29.89F

$$

REGIONAL REPORTS

CITY           SKY/WX    TMP DP  RH WIND       PRES   REMARKS
SANTA BARBARA  MOSUNNY   70  49  47 W7        29.97S
SANDBERG       MOSUNNY   67  38  34 NW7       30.14S
LAS VEGAS NV   SUNNY     84  26  12 N7        29.97F
PHOENIX AZ     PTSUNNY   88  28  11 CALM      29.86S
TIJUANA          N/A    N/A N/A N/A W7        30.01R

$$

OFFSHORE ISLANDS

CITY           SKY/WX    TMP DP  RH WIND       PRES   REMARKS
CATALINA ARPT  PTSUNNY   66  45  46 CALM      30.02S

$$

MARINE AND OFFSHORE BUOY REPORTS

STATION/POSITION SKY/WX   TEMP    WIND        PRES    VSBY  SWELL
                          AIR SEA DIR/SP/G                  HT/PER/DIR
                          (F)     (DEG/KT/KT) (MB)    (MI)  (FT/S/D)
TANNER BANKS               58 57              1015.4F
S CLEMENTE BASIN           61 62  280/ 14/ 16 1014.8F         3/230/16
SAN NICOLAS IS.               57                N/A           5/270/17
SO. S. ROSA ISLA           55 56  300/ 14/ 16 1015.5F         7/300/ 9
W. S. BARBARA CH                                N/A           7/300/13
M. S. BARBARA CH           57     240/ 10/ 14   N/A           3/250/ 8
S. MONICA BASIN                   270/  8/ 10 1014.7F         3/240/16
S PEDRO CHANNEL               56                N/A           2/150/17
CMP PENDLETON NS              60                N/A           2/210/17
OCEANSIDE OFFSHR              61                N/A           2/180/17
TORREY PINES OTR              60                N/A           2/190/18
SAN DIEGO BAY                 61              1014.8R
POINT LOMA SOUTH              61                N/A           3/180/17

$$





USA.gov is the U.S. government's official web portal to all federal, state and local government web resources and services.